User: anonymous   Login
Location: Unspecified
(0.0000°N, 0.0000°E)
Time: 08:34:41
(UTC+00:00)
Language:

APRIZESAT 3 - Orbit

View from above orbital plane
View from above orbital plane
View from above satellite
View from above satellite

Ground track
Ground track

The orbit data is extracted from the following two-line orbital elements,

1 35686U 09041F   16236.46307903  .00000129  00000-0  20852-4 0  9995
2 35686  98.2523 217.8932 0072076 260.9019  98.4035 14.86915446382943
Epoch (UTC): 23 August 2016 11:06:50
Eccentricity: 0.0072076
inclination: 98.2523°
perigee height: 557 km
apogee height: 658 km
right ascension of ascending node: 217.8932°
argument of perigee: 260.9019°
revolutions per day: 14.86915446
mean anomaly at epoch: 98.4035°
orbit number at epoch: 38294

The dashed part of the orbit path shows where the satellite is in the earth's shadow,  

DLR